Home > Time Zones > World Clock > Weather > France > Lens > Past weeks

Flag for France Weather past 2 weeks in Lens, France

Now
57 °F

Sunny.


Feels Like: 57 °F
Forecast: 59 / 76 °F
Wind: 3 mph from Southwest

Location: Lille Airport

Current Time: Jul 6, 2015 at 7:11:24 AM

Latest Report: Jul 6, 2015 at 7:00 AM


Visibility: 10 mi

Pressure: 30.18 "Hg

Humidity: 88%

Dew point: 54 °F

Location of LensLocation

Historic Weather in Lens — Graph

°F

Lens temperature yesterday

Maximum temperature yesterday: 73 °F (at 11:00 AM)
Minimum temperature yesterday: 59 °F (at 11:00 PM)
Average temperature yesterday: 67 °F

Past Weeks' High & Low Weather Summary

 TemperatureHumidityPressure
High95 °F (Jul 1, 3:30 PM)100% (Jun 24, 5:30 AM)30.27 "Hg (Jun 24, 5:30 AM)
Low46 °F (Jun 24, 5:30 AM)25% (Jul 1, 6:00 PM)29.74 "Hg (Jun 22, 5:30 PM)
Average68 °F65%30.08 "Hg
* Reported Jun 21 6:00 AM — Jul 6 6:00 AM, Lens, Weather by CustomWeather, © 2015

Note: Actual official high and low records may vary slightly from our data, if they occured in-between our weather recording intervals... More about our weather records

Advertising

Lens weather history for previous 24 hours

 ConditionsComfort  
Time TempWeatherWind HumidityBarometerVisibility
6:00 AM
Mon, Jul 6
55 °FClear.7 mph88%30.15 "Hg10 mi
5:30 AM54 °FClear.5 mph94%30.15 "Hg10 mi
5:00 AM55 °FClear.6 mph82%30.15 "Hg10 mi
4:30 AM55 °FClear.2 mph88%30.15 "Hg10 mi
4:00 AM55 °FClear.No wind88%30.15 "Hg10 mi
3:30 AM55 °FClear.3 mph88%30.15 "Hg10 mi
3:00 AM55 °FClear.3 mph88%30.15 "Hg10 mi
2:30 AM57 °FClear.3 mph82%30.15 "Hg10 mi
2:00 AM57 °FClear.7 mph82%30.15 "Hg10 mi
1:30 AM57 °FClear.6 mph82%30.15 "Hg10 mi
1:00 AM57 °FClear.5 mph88%30.12 "Hg10 mi
12:30 AM59 °FClear.7 mph82%30.12 "Hg10 mi
12:00 AM59 °FClear.5 mph82%30.12 "Hg10 mi
11:30 PM
Sun, Jul 5
59 °FClear.5 mph88%30.12 "Hg10 mi
11:00 PM59 °FSunny.7 mph82%30.09 "Hg10 mi
10:30 PM61 °FSunny.7 mph77%30.09 "Hg10 mi
10:00 PM63 °FSunny.9 mph73%30.09 "Hg10 mi
9:30 PM64 °FSunny.14 mph73%30.07 "Hg10 mi
9:00 PM64 °FScattered clouds.12 mph78%30.07 "HgN/A
8:30 PM64 °FPartly sunny.15 mph78%30.07 "HgN/A
8:00 PM66 °FBroken clouds.13 mph73%30.07 "HgN/A
7:30 PM66 °FBroken clouds.18 mph78%30.07 "HgN/A
7:00 PM72 °FBroken clouds.7 mph65%30.04 "HgN/A
6:30 PM72 °FPassing clouds.7 mph65%30.04 "HgN/A
6:00 PM72 °FPartly sunny.6 mph69%30.04 "HgN/A
5:30 PM72 °FSunny.3 mph65%30.04 "Hg10 mi
5:00 PM70 °FSunny.3 mph69%30.01 "Hg10 mi
4:30 PM66 °FSunny.2 mph78%30.04 "Hg10 mi
4:00 PM66 °FMild.6 mph83%30.01 "HgN/A
3:30 PM66 °FBroken clouds.10 mph88%30.01 "HgN/A
3:00 PM63 °FMostly cloudy.13 mph88%30.07 "HgN/A
2:30 PM66 °FThundershowers. Cloudy.14 mph73%30.09 "HgN/A
2:00 PM66 °FOvercast.17 mph64%30.07 "HgN/A
1:30 PM66 °FMostly cloudy.17 mph60%30.04 "HgN/A
1:00 PM68 °FPartly sunny.15 mph73%30.04 "HgN/A
12:30 PM70 °FMild.12 mph64%30.01 "HgN/A
12:00 PM72 °FPassing clouds.9 mph61%30.01 "HgN/A
11:30 AM73 °FPassing clouds.6 mph53%30.01 "HgN/A
11:00 AM73 °FPassing clouds.3 mph50%30.01 "HgN/A
10:30 AM72 °FPassing clouds.6 mph61%30.01 "HgN/A
10:00 AM70 °FPassing clouds.7 mph64%30.01 "HgN/A
9:30 AM70 °FPassing clouds.5 mph60%30.04 "HgN/A
9:00 AM70 °FPassing clouds.3 mph57%30.04 "HgN/A
8:30 AM68 °FSunny.3 mph60%30.07 "Hg10 mi
8:00 AM68 °FSunny.3 mph60%30.07 "Hg10 mi
7:30 AM66 °FSunny.2 mph60%30.07 "Hg10 mi
7:00 AM64 °FSunny.No wind68%30.07 "Hg10 mi
Weather by CustomWeather, © 2015

See weather overviewHow to use our weather pages